User: anonymous   Login
Location: Fremont
(37.5480°N, 121.9880°W)
Time: 22:46:56
(UTC-08:00)
Language:

Cosmos 1844 Rocket - Orbit

View from above orbital plane
View from above orbital plane
View from above satellite
View from above satellite

Ground track
Ground track

The orbit data is extracted from the following two-line orbital elements,

1 17974U 87041B   16337.20335558 -.00000244  00000-0 -97167-4 0  9995
2 17974  71.0080 324.8623 0015205 325.8795 109.9390 14.17213457528771
Epoch (UTC): 02 December 2016 04:52:49
Eccentricity: 0.0015205
inclination: 71.0080°
perigee height: 824 km
apogee height: 846 km
right ascension of ascending node: 324.8623°
argument of perigee: 325.8795°
revolutions per day: 14.17213457
mean anomaly at epoch: 109.9390°
orbit number at epoch: 52877

The dashed part of the orbit path shows where the satellite is in the earth's shadow,  

DLR